{"data":{"norad_id":59647,"epoch":"2026-05-25T04:06:40.574016Z","epoch_age_seconds":67129,"freshness":"FRESH","line1":"1 59647U 24082S   26145.17130294  .00001988  00000+0  81774-4 0  9998","line2":"2 59647  43.0042  68.3201 0000877 277.7003  82.3749 15.27571217116553","mean_motion":15.27571217,"eccentricity":8.77e-5,"inclination_deg":43.0042,"raan_deg":68.3201,"arg_perigee_deg":277.7003,"mean_anomaly_deg":82.3749,"bstar":8.1774e-5,"rev_number":11655,"period_min":94.267290714473,"perigee_km":482.47366730023,"apogee_km":483.67712395443,"semimajor_km":6861.2123956273,"source":"CELESTRAK","updated_at":"2026-05-25T13:38:19.016164Z"}}